Regional Weather Roundup
Issued by NWS

Home | Current Version | Previous Version | Text Only | Print | Product List | Glossary On
Versions: 1 2 3 4 5 6 7 8 9 10 11 12 13 14 15 16 17 18 19 20 21 22 23 24 25 26 27 28 29 30 31 32 33 34 35 36 37 38 39 40 41 42 43 44 45 46 47 48 49 50
000
ASUS45 KCYS 301810
RWRWY

WYOMING REGIONAL WEATHER ROUNDUP
NATIONAL WEATHER SERVICE CHEYENNE WY
1200 PM MDT THU JUL 30 2015

NOTE:  "FAIR" INDICATES FEW OR NO CLOUDS BELOW 12,000 FEET
WITH NO SIGNIFICANT WEATHER AND/OR OBSTRUCTIONS TO VISIBILITY.

WYZ001-301900-
YELLOWSTONE NATIONAL PARK

CITY           SKY/WX    TMP DP  RH WIND       PRES   REMARKS
LK YELLOWSTONE   N/A     62  40  44 E5        30.57S
6HR MIN TEMP:  33; 6HR MAX TEMP:  63;

W YELLOWSTONE  NOT AVBL

$$
WYZ002>013-054>058-071-098>099-301900-
NORTHERN WYOMING

CITY           SKY/WX    TMP DP  RH WIND       PRES   REMARKS
JACKSON        FAIR      70  37  30 S3        30.48S
CODY           FAIR      79  36  21 CALM      30.35F
GREYBULL       FAIR      81  33  17 E5        30.30F
6HR MIN TEMP:  50; 6HR MAX TEMP:  81;

WORLAND        FAIR      80  38  22 VRB5      30.32F
6HR MIN TEMP:  48; 6HR MAX TEMP:  81;

SHERIDAN       FAIR      83  34  17 CALM      30.30S
6HR MIN TEMP:  47; 6HR MAX TEMP:  84;

BUFFALO        FAIR      82  35  18 SE9       30.37S
6HR MIN TEMP:  58; 6HR MAX TEMP:  82;

GILLETTE         N/A     81  36  19 CALM      30.32
6HR MIN TEMP:  50; 6HR MAX TEMP:  82;

HULETT         FAIR      79  37  22 CALM      30.33F
NEWCASTLE      FAIR      81  32  17 W10       30.33S

$$
WYZ014>020-022>026-101>103-301900-
CENTRAL WYOMING

CITY           SKY/WX    TMP DP  RH WIND       PRES   REMARKS
BIG PINEY      FAIR      72  20  14 W6        30.50S
6HR MIN TEMP:  35; 6HR MAX TEMP:  73;

PINEDALE       FAIR      72  25  17 SE6       30.50F
DUBOIS         FAIR      70  21  16 SE6       30.50S
LANDER         FAIR      79  30  16 NE6       30.39F
6HR MIN TEMP:  51; 6HR MAX TEMP:  79;

RIVERTON       FAIR      76  30  18 E7        30.40F
6HR MIN TEMP:  49; 6HR MAX TEMP:  76;

CASPER         FAIR      80  36  20 N8        30.38F
6HR MIN TEMP:  44; 6HR MAX TEMP:  80;

DOUGLAS        FAIR      81  44  27 CALM      30.36F
6HR MIN TEMP:  44; 6HR MAX TEMP:  83;


$$
WYZ021-027>030-104>119-301900-
SOUTHERN WYOMING

CITY           SKY/WX    TMP DP  RH WIND       PRES   REMARKS
EVANSTON       FAIR      74  22  14 NW6       30.50S
6HR MIN TEMP:  47; 6HR MAX TEMP:  75;

KEMMERER       FAIR      73  23  15 W3        30.51F
FORT BRIDGER   FAIR      74  26  17 CALM      30.52F
ROCK SPRINGS   FAIR      75  28  17 CALM      30.47F
6HR MIN TEMP:  49; 6HR MAX TEMP:  75;

DIXON          FAIR      80  21  11 CALM      30.46S
RAWLINS        FAIR      78  18  10 VRB3      30.46F
6HR MIN TEMP:  39; 6HR MAX TEMP:  78;

SARATOGA       FAIR      77  21  12 NW7       30.48F
LARAMIE        FAIR      75  21  13 VRB3      30.48S
6HR MIN TEMP:  39; 6HR MAX TEMP:  77;

CHEYENNE       FAIR      80  46  30 NE12      30.41F
6HR MIN TEMP:  54; 6HR MAX TEMP:  80;

TORRINGTON     FAIR      81  51  35 SW6       30.30F
6HR MIN TEMP:  53; 6HR MAX TEMP:  81;

PINE BLUFFS    FAIR      81  50  34 NE8       30.36S

$$


USA.gov is the U.S. government's official web portal to all federal, state and local government web resources and services.